sat.trackr.live / text

‹ back to catalog

STARLINK-4411

NORAD 53202 · 2022-084P

PAYLOAD ACTIVE UNKNOWN

§ Identity

Operator
Country
US
Launch date
2022-07-22
Launch site
AFWTR
Launch vehicle
Mass (kg)
RCS (m²)

Purposes: comms

External: N2YO · Heavens-Above · Gunter

§ Orbital elements

Epoch: 2026-05-25T03:24:51.823008Z

Period
95.64 min
Inclination
97.4494°
Eccentricity
0.0001851
Mean motion
15.05635097 rev/d
Perigee alt
548.3 km
Apogee alt
550.8 km
Semi-major
6,927.7 km
B*
-1.7821e-4
RAAN
206.2263°
Arg perigee
33.8734°
Mean anomaly
326.2611°
Rev number
21,088

§ Raw data

STARLINK-44111 53202U 22084P   26145.14226647 -.00002628  00000+0 -17821-3 0  99992 53202  97.4494 206.2263 0001851  33.8734 326.2611 15.05635097210886

JSON: /api/v1/satellites/53202 · /tle

For live sub-satellite position, see the globe view (requires WebGL).

§ Visibility from observer

Set your observer location to see the next 7 days of passes ≥ 10°. The values pass through the URL so the page stays shareable.

No JS? Fill the form by hand. The geolocation button needs JavaScript.